Time,TemperatureF,DewpointF,PressureIn,WindDirection,WindDirectionDegrees,WindSpeedMPH,WindSpeedGustMPH,Humidity,HourlyPrecipIn,Conditions,Clouds,dailyrainin,SoftwareType,DateUTC
2013-01-22 00:00:00,24.9,19.6,29.82,West,267,3.5,3.5,80,0.00,-SN,,0.00,WeatherDisplay:10.37,2013-01-22 05:00:00,
2013-01-22 00:01:00,24.9,19.6,29.82,West,267,2.3,2.3,80,0.00,BKN,,0.00,WeatherDisplay:10.37,2013-01-22 05:01:00,
2013-01-22 00:06:00,24.9,19.6,29.83,NW,306,5.0,5.0,80,0.00,CLR,,0.00,WeatherDisplay:10.37,2013-01-22 05:06:00,
2013-01-22 00:11:00,25.1,19.5,29.82,NW,321,3.5,3.5,79,0.00,CLR,,0.00,WeatherDisplay:10.37,2013-01-22 05:11:00,
2013-01-22 00:16:00,25.1,18.6,29.83,West,273,18.4,18.4,76,0.00,CLR,,0.00,WeatherDisplay:10.37,2013-01-22 05:16:00,
2013-01-22 00:21:00,25.1,17.3,29.82,NW,325,11.5,11.5,72,0.00,CLR,,0.00,WeatherDisplay:10.37,2013-01-22 05:21:00,
2013-01-22 00:26:00,25.0,16.9,29.83,North,355,6.9,6.9,71,0.00,CLR,,0.00,WeatherDisplay:10.37,2013-01-22 05:26:00,
2013-01-22 00:31:00,25.0,16.6,29.82,WNW,297,7.0,7.0,70,0.00,CLR,,0.00,WeatherDisplay:10.37,2013-01-22 05:31:00,
2013-01-22 00:36:00,24.8,16.4,29.82,WSW,243,5.0,5.0,70,0.00,CLR,,0.00,WeatherDisplay:10.37,2013-01-22 05:36:00,
2013-01-22 00:41:00,24.6,16.2,29.82,NW,304,3.5,3.5,70,0.00,CLR,,0.00,WeatherDisplay:10.37,2013-01-22 05:41:00,
2013-01-22 00:46:00,24.5,15.8,29.82,WNW,292,4.6,4.6,69,0.00,CLR,,0.00,WeatherDisplay:10.37,2013-01-22 05:46:00,
2013-01-22 00:51:00,24.3,15.6,29.82,WNW,295,11.5,11.5,69,0.00,CLR,,0.00,WeatherDisplay:10.37,2013-01-22 05:51:00,
2013-01-22 00:56:00,24.2,14.8,29.82,North,355,7.0,7.0,67,0.00,CLR,,0.00,WeatherDisplay:10.37,2013-01-22 05:56:00,
2013-01-22 01:01:00,24.1,14.4,29.83,NW,304,10.4,10.4,66,0.00,CLR,,0.00,WeatherDisplay:10.37,2013-01-22 06:01:00,
2013-01-22 01:06:00,24.0,13.9,29.83,WNW,293,13.8,13.8,65,0.00,CLR,,0.00,WeatherDisplay:10.37,2013-01-22 06:06:00,
2013-01-22 01:11:00,24.0,13.9,29.83,WNW,296,8.1,8.1,65,0.00,CLR,,0.00,WeatherDisplay:10.37,2013-01-22 06:11:00,
2013-01-22 01:16:00,23.9,13.5,29.83,WNW,299,4.6,4.6,64,0.00,CLR,,0.00,WeatherDisplay:10.37,2013-01-22 06:16:00,
2013-01-22 01:21:00,23.8,13.7,29.83,NW,318,5.8,5.8,65,0.00,CLR,,0.00,WeatherDisplay:10.37,2013-01-22 06:21:00,
2013-01-22 01:26:00,23.6,13.5,29.84,NW,309,11.5,11.5,65,0.00,CLR,,0.00,WeatherDisplay:10.37,2013-01-22 06:26:00,
2013-01-22 01:31:00,23.6,13.2,29.84,WNW,297,6.9,6.9,64,0.00,CLR,,0.00,WeatherDisplay:10.37,2013-01-22 06:31:00,
2013-01-22 01:36:00,23.5,13.1,29.84,WNW,289,2.3,2.3,64,0.00,CLR,,0.00,WeatherDisplay:10.37,2013-01-22 06:36:00,
2013-01-22 01:41:00,23.4,13.4,29.84,WNW,292,4.6,4.6,65,0.00,CLR,,0.00,WeatherDisplay:10.37,2013-01-22 06:41:00,
2013-01-22 01:46:00,23.3,13.3,29.84,NW,309,11.5,11.5,65,0.00,CLR,,0.00,WeatherDisplay:10.37,2013-01-22 06:46:00,
2013-01-22 01:51:00,23.2,13.2,29.85,West,281,4.6,4.6,65,0.00,CLR,,0.00,WeatherDisplay:10.37,2013-01-22 06:51:00,
2013-01-22 01:56:00,23.1,13.1,29.85,NW,325,6.9,6.9,65,0.00,CLR,,0.00,WeatherDisplay:10.37,2013-01-22 06:56:00,
2013-01-22 02:01:00,23.1,12.7,29.85,NW,305,4.6,4.6,64,0.00,CLR,,0.00,WeatherDisplay:10.37,2013-01-22 07:01:00,
2013-01-22 02:06:00,23.0,12.6,29.85,WNW,286,6.9,6.9,64,0.00,CLR,,0.00,WeatherDisplay:10.37,2013-01-22 07:06:00,
2013-01-22 02:11:00,22.9,12.5,29.85,NNE,16,2.3,2.3,64,0.00,CLR,,0.00,WeatherDisplay:10.37,2013-01-22 07:11:00,
2013-01-22 02:16:00,22.9,12.5,29.85,WSW,254,5.8,5.8,64,0.00,CLR,,0.00,WeatherDisplay:10.37,2013-01-22 07:16:00,
2013-01-22 02:21:00,22.9,12.5,29.85,NNW,344,9.2,9.2,64,0.00,CLR,,0.00,WeatherDisplay:10.37,2013-01-22 07:21:00,
2013-01-22 02:26:00,22.9,12.9,29.86,NNW,327,4.6,4.6,65,0.00,CLR,,0.00,WeatherDisplay:10.37,2013-01-22 07:26:00,
2013-01-22 02:31:00,22.9,12.9,29.86,NW,317,5.8,5.8,65,0.00,CLR,,0.00,WeatherDisplay:10.37,2013-01-22 07:31:00,
2013-01-22 02:36:00,22.9,12.9,29.86,NW,316,9.2,9.2,65,0.00,CLR,,0.00,WeatherDisplay:10.37,2013-01-22 07:36:00,
2013-01-22 02:41:00,22.8,12.4,29.86,West,273,14.0,14.0,64,0.00,CLR,,0.00,WeatherDisplay:10.37,2013-01-22 07:41:00,
2013-01-22 02:46:00,22.7,12.0,29.86,NNW,345,14.0,14.0,63,0.00,CLR,,0.00,WeatherDisplay:10.37,2013-01-22 07:46:00,
2013-01-22 02:51:00,22.5,11.8,29.86,WNW,300,6.9,6.9,63,0.00,CLR,,0.00,WeatherDisplay:10.37,2013-01-22 07:51:00,
2013-01-22 02:56:00,22.4,11.3,29.86,North,355,8.1,8.1,62,0.00,CLR,,0.00,WeatherDisplay:10.37,2013-01-22 07:56:00,
2013-01-22 03:01:00,22.3,11.6,29.86,NW,321,4.6,4.6,63,0.00,CLR,,0.00,WeatherDisplay:10.37,2013-01-22 08:01:00,
2013-01-22 03:06:00,22.1,11.1,29.86,NW,313,2.3,2.3,62,0.00,FEW,,0.00,WeatherDisplay:10.37,2013-01-22 08:06:00,
2013-01-22 03:11:00,22.0,11.3,29.86,WNW,294,8.1,8.1,63,0.00,FEW,,0.00,WeatherDisplay:10.37,2013-01-22 08:11:00,
2013-01-22 03:16:00,21.8,10.8,29.86,North,349,5.8,5.8,62,0.00,FEW,,0.00,WeatherDisplay:10.37,2013-01-22 08:16:00,
2013-01-22 03:21:00,21.7,10.7,29.86,NNW,328,8.1,8.1,62,0.00,FEW,,0.00,WeatherDisplay:10.37,2013-01-22 08:21:00,
2013-01-22 03:26:00,21.7,10.7,29.86,West,281,9.2,9.2,62,0.00,FEW,,0.00,WeatherDisplay:10.37,2013-01-22 08:26:00,
2013-01-22 03:31:00,21.7,10.7,29.86,NW,317,15.0,15.0,62,0.00,FEW,,0.00,WeatherDisplay:10.37,2013-01-22 08:31:00,
2013-01-22 03:36:00,21.6,10.6,29.86,WNW,295,10.4,10.4,62,0.00,FEW,,0.00,WeatherDisplay:10.37,2013-01-22 08:36:00,
2013-01-22 03:41:00,21.5,10.5,29.87,WNW,287,5.8,5.8,62,0.00,FEW,,0.00,WeatherDisplay:10.37,2013-01-22 08:41:00,
2013-01-22 03:46:00,21.4,10.7,29.87,NW,319,7.0,7.0,63,0.00,FEW,,0.00,WeatherDisplay:10.37,2013-01-22 08:46:00,
2013-01-22 03:51:00,21.3,10.3,29.87,West,259,10.0,10.0,62,0.00,FEW,,0.00,WeatherDisplay:10.37,2013-01-22 08:51:00,
2013-01-22 03:56:00,21.3,10.7,29.87,NW,311,4.6,4.6,63,0.00,FEW,,0.00,WeatherDisplay:10.37,2013-01-22 08:56:00,
2013-01-22 04:01:00,21.1,10.5,29.87,West,273,4.6,4.6,63,0.00,FEW,,0.00,WeatherDisplay:10.37,2013-01-22 09:01:00,
2013-01-22 04:06:00,21.1,10.5,29.87,West,266,3.5,3.5,63,0.00,CLR,,0.00,WeatherDisplay:10.37,2013-01-22 09:06:00,
2013-01-22 04:11:00,21.0,10.4,29.87,SW,215,5.0,5.0,63,0.00,CLR,,0.00,WeatherDisplay:10.37,2013-01-22 09:11:00,
2013-01-22 04:16:00,20.9,10.6,29.87,North,355,7.0,7.0,64,0.00,CLR,,0.00,WeatherDisplay:10.37,2013-01-22 09:16:00,
2013-01-22 04:21:00,20.8,10.2,29.87,WNW,294,4.6,4.6,63,0.00,CLR,,0.00,WeatherDisplay:10.37,2013-01-22 09:21:00,
2013-01-22 04:26:00,20.8,10.5,29.88,West,273,11.5,11.5,64,0.00,CLR,,0.00,WeatherDisplay:10.37,2013-01-22 09:26:00,
2013-01-22 04:31:00,20.8,10.5,29.88,West,274,11.5,11.5,64,0.00,CLR,,0.00,WeatherDisplay:10.37,2013-01-22 09:31:00,
2013-01-22 04:36:00,20.7,10.4,29.88,West,271,5.8,5.8,64,0.00,CLR,,0.00,WeatherDisplay:10.37,2013-01-22 09:36:00,
2013-01-22 04:41:00,20.6,10.3,29.88,NW,304,4.6,4.6,64,0.00,CLR,,0.00,WeatherDisplay:10.37,2013-01-22 09:41:00,
2013-01-22 04:46:00,20.5,10.6,29.89,NW,313,6.0,6.0,65,0.00,CLR,,0.00,WeatherDisplay:10.37,2013-01-22 09:46:00,
2013-01-22 04:51:00,20.4,10.5,29.89,West,277,6.9,6.9,65,0.00,CLR,,0.00,WeatherDisplay:10.37,2013-01-22 09:51:00,
2013-01-22 04:56:00,20.3,10.4,29.89,NW,311,4.6,4.6,65,0.00,CLR,,0.00,WeatherDisplay:10.37,2013-01-22 09:56:00,
2013-01-22 05:01:00,20.2,10.6,29.90,West,260,9.2,9.2,66,0.00,CLR,,0.00,WeatherDisplay:10.37,2013-01-22 10:01:00,
2013-01-22 05:06:00,20.2,10.6,29.90,NNW,333,5.8,5.8,66,0.00,FEW,,0.00,WeatherDisplay:10.37,2013-01-22 10:06:00,
2013-01-22 05:11:00,20.1,10.9,29.91,West,272,12.7,12.7,67,0.00,FEW,,0.00,WeatherDisplay:10.37,2013-01-22 10:11:00,
2013-01-22 05:16:00,20.1,10.9,29.91,WNW,300,5.8,5.8,67,0.00,FEW,,0.00,WeatherDisplay:10.37,2013-01-22 10:16:00,
2013-01-22 05:21:00,20.0,11.1,29.91,NW,309,7.0,7.0,68,0.00,FEW,,0.00,WeatherDisplay:10.37,2013-01-22 10:21:00,
2013-01-22 05:26:00,19.9,11.0,29.92,WSW,244,5.8,5.8,68,0.00,FEW,,0.00,WeatherDisplay:10.37,2013-01-22 10:26:00,
2013-01-22 05:31:00,19.7,10.8,29.92,NW,325,5.8,5.8,68,0.00,FEW,,0.00,WeatherDisplay:10.37,2013-01-22 10:31:00,
2013-01-22 05:36:00,19.7,10.8,29.92,NW,315,5.8,5.8,68,0.00,FEW,,0.00,WeatherDisplay:10.37,2013-01-22 10:36:00,
2013-01-22 05:41:00,19.7,11.2,29.92,West,265,4.6,4.6,69,0.00,FEW,,0.00,WeatherDisplay:10.37,2013-01-22 10:41:00,
2013-01-22 05:46:00,19.6,10.7,29.93,NNW,338,11.5,11.5,68,0.00,FEW,,0.00,WeatherDisplay:10.37,2013-01-22 10:46:00,
2013-01-22 05:51:00,19.5,10.6,29.94,West,280,13.8,13.8,68,0.00,FEW,,0.00,WeatherDisplay:10.37,2013-01-22 10:51:00,
2013-01-22 05:56:00,19.5,10.6,29.94,NW,319,5.8,5.8,68,0.00,FEW,,0.00,WeatherDisplay:10.37,2013-01-22 10:56:00,
2013-01-22 06:01:00,19.5,10.3,29.94,NW,316,6.9,6.9,67,0.00,FEW,,0.00,WeatherDisplay:10.37,2013-01-22 11:01:00,
2013-01-22 06:06:00,19.5,10.3,29.95,NW,310,10.4,10.4,67,0.00,FEW,,0.00,WeatherDisplay:10.37,2013-01-22 11:06:00,
2013-01-22 06:11:00,19.5,10.3,29.95,NW,305,6.9,6.9,67,0.00,FEW,,0.00,WeatherDisplay:10.37,2013-01-22 11:11:00,
2013-01-22 06:16:00,19.4,9.9,29.95,WNW,301,6.9,6.9,66,0.00,FEW,,0.00,WeatherDisplay:10.37,2013-01-22 11:16:00,
2013-01-22 06:21:00,19.3,9.8,29.95,ENE,63,5.8,5.8,66,0.00,FEW,,0.00,WeatherDisplay:10.37,2013-01-22 11:21:00,
2013-01-22 06:26:00,19.3,10.1,29.95,NW,304,8.1,8.1,67,0.00,FEW,,0.00,WeatherDisplay:10.37,2013-01-22 11:26:00,
2013-01-22 06:32:00,19.2,9.7,29.95,North,355,12.7,12.7,66,0.00,FEW,,0.00,WeatherDisplay:10.37,2013-01-22 11:32:00,
2013-01-22 06:37:00,19.0,9.5,29.95,NNW,327,9.2,9.2,66,0.00,FEW,,0.00,WeatherDisplay:10.37,2013-01-22 11:37:00,
2013-01-22 06:42:00,18.9,9.4,29.95,NW,304,6.9,6.9,66,0.00,FEW,,0.00,WeatherDisplay:10.37,2013-01-22 11:42:00,
2013-01-22 06:47:00,18.8,9.0,29.95,NNE,29,6.9,6.9,65,0.00,FEW,,0.00,WeatherDisplay:10.37,2013-01-22 11:47:00,
2013-01-22 06:52:00,18.7,8.9,29.96,NNW,327,9.2,9.2,65,0.00,FEW,,0.00,WeatherDisplay:10.37,2013-01-22 11:52:00,
2013-01-22 06:57:00,18.6,8.8,29.96,North,5,10.0,10.0,65,0.00,FEW,,0.00,WeatherDisplay:10.37,2013-01-22 11:57:00,
2013-01-22 07:02:00,18.5,8.3,29.96,WNW,296,10.4,10.4,64,0.00,SCT,,0.00,WeatherDisplay:10.37,2013-01-22 12:02:00,
2013-01-22 07:07:00,18.5,8.3,29.97,NW,306,7.0,7.0,64,0.00,SCT,,0.00,WeatherDisplay:10.37,2013-01-22 12:07:00,
2013-01-22 07:12:00,18.4,8.2,29.97,West,273,5.8,5.8,64,0.00,SCT,,0.00,WeatherDisplay:10.37,2013-01-22 12:12:00,
2013-01-22 07:17:00,18.4,8.2,29.97,WNW,296,3.5,3.5,64,0.00,SCT,,0.00,WeatherDisplay:10.37,2013-01-22 12:17:00,
2013-01-22 07:22:00,18.3,8.1,29.97,NW,317,9.2,9.2,64,0.00,SCT,,0.00,WeatherDisplay:10.37,2013-01-22 12:22:00,
2013-01-22 07:27:00,18.3,8.5,29.97,North,355,9.2,9.2,65,0.00,SCT,,0.00,WeatherDisplay:10.37,2013-01-22 12:27:00,
2013-01-22 07:32:00,18.2,8.1,29.98,NNW,342,3.5,3.5,64,0.00,SCT,,0.00,WeatherDisplay:10.37,2013-01-22 12:32:00,
2013-01-22 07:37:00,18.2,8.1,29.98,North,10,4.6,4.6,64,0.00,SCT,,0.00,WeatherDisplay:10.37,2013-01-22 12:37:00,
2013-01-22 07:42:00,18.2,7.7,29.98,NW,318,8.1,8.1,63,0.00,SCT,,0.00,WeatherDisplay:10.37,2013-01-22 12:42:00,
2013-01-22 07:47:00,18.2,7.0,29.98,WNW,292,6.9,6.9,61,0.00,SCT,,0.00,WeatherDisplay:10.37,2013-01-22 12:47:00,
2013-01-22 07:52:00,18.2,5.9,29.99,WNW,300,11.5,11.5,58,0.00,SCT,,0.00,WeatherDisplay:10.37,2013-01-22 12:52:00,
2013-01-22 07:57:00,18.3,6.4,29.99,NNE,16,3.5,3.5,59,0.00,SCT,,0.00,WeatherDisplay:10.37,2013-01-22 12:57:00,
2013-01-22 08:03:00,18.4,6.4,29.99,NNW,346,1.1,1.1,59,0.00,SCT,,0.00,WeatherDisplay:10.37,2013-01-22 13:03:00,
2013-01-22 08:08:00,18.4,6.4,29.99,WNW,300,2.3,2.3,59,0.00,SCT,,0.00,WeatherDisplay:10.37,2013-01-22 13:08:00,
2013-01-22 08:13:00,18.6,6.6,30.00,NW,306,4.6,4.6,59,0.00,SCT,,0.00,WeatherDisplay:10.37,2013-01-22 13:13:00,
2013-01-22 08:18:00,18.7,6.4,30.00,WNW,291,9.2,9.2,58,0.00,SCT,,0.00,WeatherDisplay:10.37,2013-01-22 13:18:00,
2013-01-22 08:23:00,18.4,5.3,30.00,NW,306,13.8,13.8,56,0.00,SCT,,0.00,WeatherDisplay:10.37,2013-01-22 13:23:00,
2013-01-22 08:29:00,18.5,5.8,30.01,NW,313,6.0,6.0,57,0.00,SCT,,0.00,WeatherDisplay:10.37,2013-01-22 13:29:00,
2013-01-22 08:34:00,18.6,5.5,30.01,NNW,347,9.2,9.2,56,0.00,SCT,,0.00,WeatherDisplay:10.37,2013-01-22 13:34:00,
2013-01-22 08:39:00,18.8,5.7,30.01,NNW,346,10.4,10.4,56,0.00,SCT,,0.00,WeatherDisplay:10.37,2013-01-22 13:39:00,
2013-01-22 08:44:00,18.9,5.8,30.01,NE,44,9.0,9.0,56,0.00,SCT,,0.00,WeatherDisplay:10.37,2013-01-22 13:44:00,
2013-01-22 08:49:00,19.1,5.6,30.01,SSW,192,3.0,3.0,55,0.00,SCT,,0.00,WeatherDisplay:10.37,2013-01-22 13:49:00,
2013-01-22 08:54:00,19.1,5.2,30.01,NW,313,14.0,14.0,54,0.00,SCT,,0.00,WeatherDisplay:10.37,2013-01-22 13:54:00,
2013-01-22 08:59:00,19.0,5.5,30.01,NNW,332,6.9,6.9,55,0.00,SCT,,0.00,WeatherDisplay:10.37,2013-01-22 13:59:00,
2013-01-22 09:04:00,19.1,5.6,30.02,WNW,296,10.4,10.4,55,0.00,SCT,,0.00,WeatherDisplay:10.37,2013-01-22 14:04:00,
2013-01-22 09:09:00,19.3,5.7,30.02,West,277,13.8,13.8,55,0.00,SCT,,0.00,WeatherDisplay:10.37,2013-01-22 14:09:00,
2013-01-22 09:14:00,19.1,5.6,30.01,WNW,291,8.1,8.5,55,0.00,SCT,,0.00,WeatherDisplay:10.37,2013-01-22 14:14:00,
2013-01-22 09:19:00,19.1,5.6,30.02,NW,325,9.2,9.2,55,0.00,SCT,,0.00,WeatherDisplay:10.37,2013-01-22 14:19:00,
2013-01-22 09:24:00,19.2,5.7,30.02,North,360,11.5,11.5,55,0.00,SCT,,0.00,WeatherDisplay:10.37,2013-01-22 14:24:00,
2013-01-22 09:29:00,19.5,5.9,30.02,NW,313,6.9,6.9,55,0.00,SCT,,0.00,WeatherDisplay:10.37,2013-01-22 14:29:00,
2013-01-22 09:34:00,19.7,5.7,30.03,West,281,20.7,20.7,54,0.00,SCT,,0.00,WeatherDisplay:10.37,2013-01-22 14:34:00,
2013-01-22 09:39:00,19.5,5.5,30.02,NNW,331,9.2,9.2,54,0.00,SCT,,0.00,WeatherDisplay:10.37,2013-01-22 14:39:00,
2013-01-22 09:44:00,19.7,5.7,30.02,NNE,16,10.4,10.4,54,0.00,SCT,,0.00,WeatherDisplay:10.37,2013-01-22 14:44:00,
2013-01-22 09:49:00,19.7,5.7,30.02,WSW,248,25.3,25.3,54,0.00,SCT,,0.00,WeatherDisplay:10.37,2013-01-22 14:49:00,
2013-01-22 09:54:00,19.6,5.6,30.03,West,271,10.4,10.4,54,0.00,SCT,,0.00,WeatherDisplay:10.37,2013-01-22 14:54:00,
2013-01-22 09:59:00,19.7,5.7,30.03,NNW,338,9.2,9.2,54,0.00,SCT,,0.00,WeatherDisplay:10.37,2013-01-22 14:59:00,
2013-01-22 10:04:00,19.7,5.7,30.03,WNW,286,11.5,11.5,54,0.00,BKN,,0.00,WeatherDisplay:10.37,2013-01-22 15:04:00,
2013-01-22 10:09:00,19.7,5.7,30.03,NW,307,11.5,11.5,54,0.00,BKN,,0.00,WeatherDisplay:10.37,2013-01-22 15:09:00,
2013-01-22 10:14:00,19.7,5.7,30.03,NW,307,10.4,10.4,54,0.00,BKN,,0.00,WeatherDisplay:10.37,2013-01-22 15:14:00,
2013-01-22 10:19:00,19.8,5.8,30.03,NW,311,10.4,10.4,54,0.00,BKN,,0.00,WeatherDisplay:10.37,2013-01-22 15:19:00,
2013-01-22 10:24:00,20.0,6.4,30.02,West,264,11.5,11.5,55,0.00,BKN,,0.00,WeatherDisplay:10.37,2013-01-22 15:24:00,
2013-01-22 10:29:00,20.6,7.0,30.03,NNW,338,5.8,5.8,55,0.00,BKN,,0.00,WeatherDisplay:10.37,2013-01-22 15:29:00,
2013-01-22 10:34:00,20.3,5.9,30.03,WSW,246,8.1,8.1,53,0.00,BKN,,0.00,WeatherDisplay:10.37,2013-01-22 15:34:00,
2013-01-22 10:39:00,20.4,6.0,30.03,West,269,11.5,11.5,53,0.00,BKN,,0.00,WeatherDisplay:10.37,2013-01-22 15:39:00,
2013-01-22 10:44:00,20.7,6.7,30.02,West,271,10.4,10.4,54,0.00,BKN,,0.00,WeatherDisplay:10.37,2013-01-22 15:44:00,
2013-01-22 10:49:00,20.8,6.3,30.02,NW,304,13.8,13.8,53,0.00,BKN,,0.00,WeatherDisplay:10.37,2013-01-22 15:49:00,
2013-01-22 10:54:00,20.6,6.2,30.02,WSW,250,12.7,12.7,53,0.00,BKN,,0.00,WeatherDisplay:10.37,2013-01-22 15:54:00,
2013-01-22 10:59:00,20.5,6.1,30.02,West,277,9.2,9.2,53,0.00,BKN,,0.00,WeatherDisplay:10.37,2013-01-22 15:59:00,
2013-01-22 11:04:00,20.4,5.5,30.02,West,265,11.5,11.5,52,0.00,SCT,,0.00,WeatherDisplay:10.37,2013-01-22 16:04:00,
2013-01-22 11:09:00,20.2,5.4,30.03,WNW,302,15.0,15.0,52,0.00,SCT,,0.00,WeatherDisplay:10.37,2013-01-22 16:09:00,
2013-01-22 11:14:00,19.9,5.1,30.02,WNW,302,22.0,22.0,52,0.00,SCT,,0.00,WeatherDisplay:10.37,2013-01-22 16:14:00,
2013-01-22 11:19:00,19.7,4.9,30.02,WNW,292,12.7,12.7,52,0.00,SCT,,0.00,WeatherDisplay:10.37,2013-01-22 16:19:00,
2013-01-22 11:24:00,19.7,4.9,30.02,NW,306,23.0,23.0,52,0.00,SCT,,0.00,WeatherDisplay:10.37,2013-01-22 16:24:00,
2013-01-22 11:29:00,19.7,5.7,30.02,NW,309,11.5,11.5,54,0.00,SCT,,0.00,WeatherDisplay:10.37,2013-01-22 16:29:00,
2013-01-22 11:34:00,19.9,5.9,30.02,WNW,286,9.2,9.2,54,0.00,SCT,,0.00,WeatherDisplay:10.37,2013-01-22 16:34:00,
2013-01-22 11:39:00,20.3,7.1,30.02,West,277,5.8,5.8,56,0.00,SCT,,0.00,WeatherDisplay:10.37,2013-01-22 16:39:00,
2013-01-22 11:44:00,20.7,7.5,30.02,NNW,339,15.0,15.0,56,0.00,SCT,,0.00,WeatherDisplay:10.37,2013-01-22 16:44:00,
2013-01-22 11:49:00,20.3,6.7,30.02,SW,231,13.8,13.8,55,0.00,SCT,,0.00,WeatherDisplay:10.37,2013-01-22 16:49:00,
2013-01-22 11:54:00,19.7,6.5,30.01,WNW,298,12.7,12.7,56,0.00,SCT,,0.00,WeatherDisplay:10.37,2013-01-22 16:54:00,
2013-01-22 11:59:00,19.7,5.7,30.01,NNE,33,13.0,13.0,54,0.00,SCT,,0.00,WeatherDisplay:10.37,2013-01-22 16:59:00,
2013-01-22 12:04:00,19.7,5.3,30.01,WNW,302,6.9,6.9,53,0.00,FEW,,0.00,WeatherDisplay:10.37,2013-01-22 17:04:00,
2013-01-22 12:09:00,20.0,5.2,30.00,WNW,290,13.8,13.8,52,0.00,FEW,,0.00,WeatherDisplay:10.37,2013-01-22 17:09:00,
2013-01-22 12:14:00,20.4,6.0,30.00,NNW,342,8.0,8.0,53,0.00,FEW,,0.00,WeatherDisplay:10.37,2013-01-22 17:14:00,
2013-01-22 12:19:00,20.0,7.2,30.01,NNW,337,12.7,12.7,57,0.00,FEW,,0.00,WeatherDisplay:10.37,2013-01-22 17:19:00,
2013-01-22 12:24:00,19.4,7.8,30.01,WSW,237,5.8,5.8,60,0.00,FEW,,0.00,WeatherDisplay:10.37,2013-01-22 17:24:00,
2013-01-22 12:29:00,18.5,7.6,30.00,NNW,330,9.2,9.2,62,0.00,FEW,,0.00,WeatherDisplay:10.37,2013-01-22 17:29:00,
2013-01-22 12:34:00,18.2,8.4,30.00,WNW,297,7.0,7.0,65,0.00,FEW,,0.00,WeatherDisplay:10.37,2013-01-22 17:34:00,
2013-01-22 12:39:00,18.7,8.9,30.00,WNW,283,5.8,5.8,65,0.00,FEW,,0.00,WeatherDisplay:10.37,2013-01-22 17:39:00,
2013-01-22 12:44:00,19.7,8.8,30.00,West,263,6.9,6.9,62,0.00,FEW,,0.00,WeatherDisplay:10.37,2013-01-22 17:44:00,
2013-01-22 12:49:00,20.0,7.6,30.00,NW,310,11.5,11.5,58,0.00,FEW,,0.00,WeatherDisplay:10.37,2013-01-22 17:49:00,
2013-01-22 12:54:00,20.0,7.2,30.00,West,265,12.7,12.7,57,0.00,FEW,,0.00,WeatherDisplay:10.37,2013-01-22 17:54:00,
2013-01-22 12:59:00,19.8,7.0,30.00,NW,312,12.7,12.7,57,0.00,FEW,,0.00,WeatherDisplay:10.37,2013-01-22 17:59:00,
2013-01-22 13:04:00,19.6,6.4,30.00,North,350,3.5,3.5,56,0.00,BKN,,0.00,WeatherDisplay:10.37,2013-01-22 18:04:00,
2013-01-22 13:09:00,19.3,6.5,29.99,NNE,23,9.2,9.2,57,0.00,BKN,,0.00,WeatherDisplay:10.37,2013-01-22 18:09:00,
2013-01-22 13:14:00,19.2,6.4,29.99,West,266,8.0,8.0,57,0.00,BKN,,0.00,WeatherDisplay:10.37,2013-01-22 18:14:00,
2013-01-22 13:19:00,19.5,6.3,29.99,NNW,335,10.4,10.4,56,0.00,BKN,,0.00,WeatherDisplay:10.37,2013-01-22 18:19:00,
2013-01-22 13:24:00,19.6,5.6,30.00,NW,325,14.0,14.0,54,0.00,BKN,,0.00,WeatherDisplay:10.37,2013-01-22 18:24:00,
2013-01-22 13:29:00,19.4,4.2,30.00,SW,217,6.9,6.9,51,0.00,BKN,,0.00,WeatherDisplay:10.37,2013-01-22 18:29:00,
2013-01-22 13:34:00,19.2,3.1,30.00,WSW,247,15.0,15.0,49,0.00,BKN,,0.00,WeatherDisplay:10.37,2013-01-22 18:34:00,
2013-01-22 13:39:00,19.4,3.3,30.00,North,5,8.1,8.1,49,0.00,BKN,,0.00,WeatherDisplay:10.37,2013-01-22 18:39:00,
2013-01-22 13:44:00,19.7,3.6,30.00,NNW,344,8.1,8.1,49,0.00,BKN,,0.00,WeatherDisplay:10.37,2013-01-22 18:44:00,
2013-01-22 13:49:00,20.0,3.4,30.00,NNE,25,6.9,6.9,48,0.00,BKN,,0.00,WeatherDisplay:10.37,2013-01-22 18:49:00,
2013-01-22 13:54:00,20.1,3.1,30.00,NW,325,15.0,15.0,47,0.00,BKN,,0.00,WeatherDisplay:10.37,2013-01-22 18:54:00,
2013-01-22 13:59:00,19.7,3.6,30.00,NW,306,11.5,11.5,49,0.00,BKN,,0.00,WeatherDisplay:10.37,2013-01-22 18:59:00,
2013-01-22 14:04:00,19.8,4.1,30.00,NNE,24,8.1,8.1,50,0.00,SCT,,0.00,WeatherDisplay:10.37,2013-01-22 19:04:00,
2013-01-22 14:09:00,19.7,3.6,30.00,North,351,10.4,10.4,49,0.00,SCT,,0.00,WeatherDisplay:10.37,2013-01-22 19:09:00,
2013-01-22 14:14:00,19.3,2.8,30.00,NNW,336,19.6,19.6,48,0.00,SCT,,0.00,WeatherDisplay:10.37,2013-01-22 19:14:00,
2013-01-22 14:19:00,19.4,3.3,30.01,WNW,286,9.2,9.2,49,0.00,SCT,,0.00,WeatherDisplay:10.37,2013-01-22 19:19:00,
2013-01-22 14:24:00,19.4,2.4,30.01,West,264,11.5,11.5,47,0.00,SCT,,0.00,WeatherDisplay:10.37,2013-01-22 19:24:00,
2013-01-22 14:29:00,19.7,2.7,30.01,WNW,293,6.0,6.0,47,0.00,SCT,,0.00,WeatherDisplay:10.37,2013-01-22 19:29:00,
2013-01-22 14:34:00,20.0,2.5,30.01,WNW,302,8.1,8.1,46,0.00,SCT,,0.00,WeatherDisplay:10.37,2013-01-22 19:34:00,
2013-01-22 14:39:00,19.9,2.4,30.01,NW,325,17.3,17.3,46,0.00,SCT,,0.00,WeatherDisplay:10.37,2013-01-22 19:39:00,
2013-01-22 14:44:00,19.8,2.3,30.01,NW,306,10.0,10.0,46,0.00,SCT,,0.00,WeatherDisplay:10.37,2013-01-22 19:44:00,
2013-01-22 14:49:00,19.7,2.2,30.01,North,360,6.9,6.9,46,0.00,SCT,,0.00,WeatherDisplay:10.37,2013-01-22 19:49:00,
2013-01-22 14:54:00,19.1,1.7,30.01,NW,316,18.4,18.4,46,0.00,SCT,,0.00,WeatherDisplay:10.37,2013-01-22 19:54:00,
2013-01-22 14:59:00,18.6,1.7,30.01,North,11,12.7,12.7,47,0.00,SCT,,0.00,WeatherDisplay:10.37,2013-01-22 19:59:00,
2013-01-22 15:04:00,18.5,2.0,30.02,WNW,292,6.9,6.9,48,0.00,SCT,,0.00,WeatherDisplay:10.37,2013-01-22 20:04:00,
2013-01-22 15:09:00,18.6,2.1,30.02,WNW,294,8.1,8.1,48,0.00,SCT,,0.00,WeatherDisplay:10.37,2013-01-22 20:09:00,
2013-01-22 15:14:00,18.7,1.8,30.02,NW,313,10.4,10.4,47,0.00,SCT,,0.00,WeatherDisplay:10.37,2013-01-22 20:14:00,
2013-01-22 15:19:00,18.5,1.1,30.02,NNW,338,6.9,6.9,46,0.00,SCT,,0.00,WeatherDisplay:10.37,2013-01-22 20:19:00,
2013-01-22 15:24:00,18.4,1.0,30.02,NNE,16,20.0,20.0,46,0.00,SCT,,0.00,WeatherDisplay:10.37,2013-01-22 20:24:00,
2013-01-22 15:29:00,18.3,1.4,30.02,NNW,342,8.1,8.1,47,0.00,SCT,,0.00,WeatherDisplay:10.37,2013-01-22 20:29:00,
2013-01-22 15:34:00,18.3,1.4,30.02,North,11,11.5,11.5,47,0.00,SCT,,0.00,WeatherDisplay:10.37,2013-01-22 20:34:00,
2013-01-22 15:40:00,18.3,1.4,30.03,WNW,288,11.5,11.5,47,0.00,SCT,,0.00,WeatherDisplay:10.37,2013-01-22 20:40:00,
2013-01-22 15:45:00,18.4,1.5,30.03,WNW,282,12.7,12.7,47,0.00,SCT,,0.00,WeatherDisplay:10.37,2013-01-22 20:45:00,
2013-01-22 15:50:00,18.3,0.9,30.03,West,274,8.1,8.5,46,0.00,SCT,,0.00,WeatherDisplay:10.37,2013-01-22 20:50:00,
2013-01-22 15:55:00,18.3,1.4,30.03,North,5,14.0,14.0,47,0.00,SCT,,0.00,WeatherDisplay:10.37,2013-01-22 20:55:00,
2013-01-22 16:00:00,18.3,0.9,30.04,WSW,240,11.5,11.5,46,0.00,SCT,,0.00,WeatherDisplay:10.37,2013-01-22 21:00:00,
2013-01-22 16:05:00,18.2,0.9,30.04,WNW,296,5.8,5.8,46,0.00,FEW,,0.00,WeatherDisplay:10.37,2013-01-22 21:05:00,
2013-01-22 16:10:00,18.1,0.8,30.04,North,355,8.1,8.1,46,0.00,FEW,,0.00,WeatherDisplay:10.37,2013-01-22 21:10:00,
2013-01-22 16:15:00,18.0,1.1,30.04,WNW,294,5.0,5.0,47,0.00,FEW,,0.00,WeatherDisplay:10.37,2013-01-22 21:15:00,
2013-01-22 16:20:00,17.9,1.0,30.05,West,279,8.1,8.1,47,0.00,CLR,,0.00,WeatherDisplay:10.37,2013-01-22 21:20:00,
2013-01-22 16:25:00,17.8,0.5,30.05,West,278,11.5,11.5,46,0.00,FEW,,0.00,WeatherDisplay:10.37,2013-01-22 21:25:00,
2013-01-22 16:30:00,17.7,-0.1,30.05,NNW,340,10.4,10.4,45,0.00,CLR,,0.00,WeatherDisplay:10.37,2013-01-22 21:30:00,
2013-01-22 16:32:00,17.7,-0.1,30.06,NNW,341,16.1,16.1,45,0.00,FEW,,0.00,WeatherDisplay:10.37,2013-01-22 21:32:00,
2013-01-22 16:37:00,17.6,-0.6,30.06,WNW,298,19.6,19.6,44,0.00,FEW,,0.00,WeatherDisplay:10.37,2013-01-22 21:37:00,
2013-01-22 16:42:00,17.5,-0.3,30.06,NW,316,12.7,12.7,45,0.00,FEW,,0.00,WeatherDisplay:10.37,2013-01-22 21:42:00,
2013-01-22 16:47:00,17.4,-0.4,30.07,North,5,15.0,15.0,45,0.00,FEW,,0.00,WeatherDisplay:10.37,2013-01-22 21:47:00,
2013-01-22 16:52:00,17.3,0.0,30.07,WNW,300,8.1,8.1,46,0.00,FEW,,0.00,WeatherDisplay:10.37,2013-01-22 21:52:00,
2013-01-22 16:57:00,17.3,0.0,30.07,WSW,248,4.6,4.6,46,0.00,FEW,,0.00,WeatherDisplay:10.37,2013-01-22 21:57:00,
2013-01-22 17:02:00,17.2,0.4,30.07,NNE,26,1.1,0.0,47,0.00,SCT,,0.00,WeatherDisplay:10.37,2013-01-22 22:02:00,
2013-01-22 17:07:00,17.2,0.8,30.08,SSW,207,5.8,5.8,48,0.00,SCT,,0.00,WeatherDisplay:10.37,2013-01-22 22:07:00,
2013-01-22 17:12:00,17.0,0.7,30.08,WNW,303,19.6,19.6,48,0.00,SCT,,0.00,WeatherDisplay:10.37,2013-01-22 22:12:00,
2013-01-22 17:17:00,17.0,0.7,30.08,WSW,248,11.5,11.5,48,0.00,SCT,,0.00,WeatherDisplay:10.37,2013-01-22 22:17:00,
2013-01-22 17:22:00,16.9,0.6,30.09,NW,325,6.9,6.9,48,0.00,SCT,,0.00,WeatherDisplay:10.37,2013-01-22 22:22:00,
2013-01-22 17:27:00,16.8,0.5,30.09,WNW,292,11.5,11.5,48,0.00,SCT,,0.00,WeatherDisplay:10.37,2013-01-22 22:27:00,
2013-01-22 17:32:00,16.7,0.4,30.09,West,273,9.2,9.2,48,0.00,SCT,,0.00,WeatherDisplay:10.37,2013-01-22 22:32:00,
2013-01-22 17:37:00,16.7,0.4,30.09,SW,227,10.4,10.4,48,0.00,SCT,,0.00,WeatherDisplay:10.37,2013-01-22 22:37:00,
2013-01-22 17:42:00,16.7,0.4,30.10,WSW,254,12.7,12.7,48,0.00,SCT,,0.00,WeatherDisplay:10.37,2013-01-22 22:42:00,
2013-01-22 17:47:00,16.6,-0.6,30.10,WNW,282,8.1,8.1,46,0.00,SCT,,0.00,WeatherDisplay:10.37,2013-01-22 22:47:00,
2013-01-22 17:52:00,16.5,-0.7,30.11,WSW,246,5.8,5.8,46,0.00,SCT,,0.00,WeatherDisplay:10.37,2013-01-22 22:52:00,
2013-01-22 17:57:00,16.4,-1.3,30.11,WSW,242,15.0,15.0,45,0.00,SCT,,0.00,WeatherDisplay:10.37,2013-01-22 22:57:00,
2013-01-22 18:02:00,16.3,-1.8,30.11,WNW,290,9.2,9.2,44,0.00,FEW,,0.00,WeatherDisplay:10.37,2013-01-22 23:02:00,
2013-01-22 18:07:00,16.2,-1.9,30.11,WNW,283,11.5,11.5,44,0.00,FEW,,0.00,WeatherDisplay:10.37,2013-01-22 23:07:00,
2013-01-22 18:12:00,16.2,-1.9,30.12,NNE,13,19.6,19.6,44,0.00,FEW,,0.00,WeatherDisplay:10.37,2013-01-22 23:12:00,
2013-01-22 18:17:00,16.1,-2.0,30.12,WNW,293,12.0,12.0,44,0.00,FEW,,0.00,WeatherDisplay:10.37,2013-01-22 23:17:00,
2013-01-22 18:22:00,16.1,-1.5,30.12,NW,309,8.1,8.1,45,0.00,FEW,,0.00,WeatherDisplay:10.37,2013-01-22 23:22:00,
2013-01-22 18:27:00,16.0,-1.6,30.12,NW,313,8.1,8.1,45,0.00,FEW,,0.00,WeatherDisplay:10.37,2013-01-22 23:27:00,
2013-01-22 18:32:00,15.9,-1.3,30.12,WNW,295,4.6,4.6,46,0.00,FEW,,0.00,WeatherDisplay:10.37,2013-01-22 23:32:00,
2013-01-22 18:38:00,15.8,-1.4,30.12,WNW,290,3.5,3.5,46,0.00,FEW,,0.00,WeatherDisplay:10.37,2013-01-22 23:38:00,
2013-01-22 18:43:00,15.8,-1.4,30.12,WNW,286,6.9,6.9,46,0.00,FEW,,0.00,WeatherDisplay:10.37,2013-01-22 23:43:00,
2013-01-22 18:48:00,15.7,-1.4,30.12,WSW,239,9.2,9.2,46,0.00,FEW,,0.00,WeatherDisplay:10.37,2013-01-22 23:48:00,
2013-01-22 18:53:00,15.7,-1.0,30.12,NW,314,5.8,5.8,47,0.00,FEW,,0.00,WeatherDisplay:10.37,2013-01-22 23:53:00,
2013-01-22 18:58:00,15.6,-1.5,30.12,West,269,11.5,11.5,46,0.00,FEW,,0.00,WeatherDisplay:10.37,2013-01-22 23:58:00,
2013-01-22 19:03:00,15.5,-1.2,30.12,West,268,6.9,6.9,47,0.00,CLR,,0.00,WeatherDisplay:10.37,2013-01-23 00:03:00,
2013-01-22 19:08:00,15.5,-1.2,30.13,North,355,6.9,6.9,47,0.00,CLR,,0.00,WeatherDisplay:10.37,2013-01-23 00:08:00,
2013-01-22 19:13:00,15.5,-1.2,30.13,WNW,288,9.2,9.2,47,0.00,CLR,,0.00,WeatherDisplay:10.37,2013-01-23 00:13:00,
2013-01-22 19:18:00,15.5,-1.2,30.13,West,278,10.4,10.4,47,0.00,CLR,,0.00,WeatherDisplay:10.37,2013-01-23 00:18:00,
2013-01-22 19:23:00,15.4,-0.8,30.13,NW,304,6.9,6.9,48,0.00,CLR,,0.00,WeatherDisplay:10.37,2013-01-23 00:23:00,
2013-01-22 19:28:00,15.4,-0.8,30.13,West,271,9.2,9.2,48,0.00,CLR,,0.00,WeatherDisplay:10.37,2013-01-23 00:28:00,
2013-01-22 19:33:00,15.3,-0.9,30.14,NW,307,13.8,13.8,48,0.00,CLR,,0.00,WeatherDisplay:10.37,2013-01-23 00:33:00,
2013-01-22 19:38:00,15.3,-0.9,30.14,WNW,292,10.4,10.4,48,0.00,CLR,,0.00,WeatherDisplay:10.37,2013-01-23 00:38:00,
2013-01-22 19:43:00,15.2,-0.6,30.14,NNW,341,4.6,4.6,49,0.00,CLR,,0.00,WeatherDisplay:10.37,2013-01-23 00:43:00,
2013-01-22 19:48:00,15.1,-0.7,30.14,NNW,337,6.9,6.9,49,0.00,CLR,,0.00,WeatherDisplay:10.37,2013-01-23 00:48:00,
2013-01-22 19:53:00,15.1,-0.2,30.14,WNW,290,9.2,9.2,50,0.00,CLR,,0.00,WeatherDisplay:10.37,2013-01-23 00:53:00,
2013-01-22 19:58:00,15.0,-0.8,30.15,WNW,294,9.2,9.2,49,0.00,CLR,,0.00,WeatherDisplay:10.37,2013-01-23 00:58:00,
2013-01-22 20:03:00,15.0,-0.8,30.15,NW,306,6.9,6.9,49,0.00,CLR,,0.00,WeatherDisplay:10.37,2013-01-23 01:03:00,
2013-01-22 20:08:00,14.9,-0.8,30.15,WNW,290,10.0,10.0,49,0.00,CLR,,0.00,WeatherDisplay:10.37,2013-01-23 01:08:00,
2013-01-22 20:13:00,14.8,-0.9,30.15,WNW,300,5.8,5.8,49,0.00,CLR,,0.00,WeatherDisplay:10.37,2013-01-23 01:13:00,
2013-01-22 20:18:00,14.7,-1.0,30.15,North,355,10.4,10.4,49,0.00,CLR,,0.00,WeatherDisplay:10.37,2013-01-23 01:18:00,
2013-01-22 20:23:00,14.6,-0.7,30.15,NE,38,5.8,5.8,50,0.00,CLR,,0.00,WeatherDisplay:10.37,2013-01-23 01:23:00,
2013-01-22 20:28:00,14.6,-0.7,30.16,WNW,290,4.6,4.6,50,0.00,CLR,,0.00,WeatherDisplay:10.37,2013-01-23 01:28:00,
2013-01-22 20:33:00,14.5,-0.4,30.16,WNW,284,10.4,10.4,51,0.00,CLR,,0.00,WeatherDisplay:10.37,2013-01-23 01:33:00,
2013-01-22 20:38:00,14.4,-0.5,30.16,WNW,289,5.0,5.0,51,0.00,CLR,,0.00,WeatherDisplay:10.37,2013-01-23 01:38:00,
2013-01-22 20:43:00,14.4,0.0,30.16,WNW,302,6.9,6.9,52,0.00,CLR,,0.00,WeatherDisplay:10.37,2013-01-23 01:43:00,
2013-01-22 20:48:00,14.3,-0.1,30.17,WNW,285,1.1,0.0,52,0.00,CLR,,0.00,WeatherDisplay:10.37,2013-01-23 01:48:00,
2013-01-22 20:53:00,14.3,-0.1,30.17,NW,307,7.0,7.0,52,0.00,CLR,,0.00,WeatherDisplay:10.37,2013-01-23 01:53:00,
2013-01-22 20:58:00,14.2,0.2,30.17,WNW,290,8.0,8.0,53,0.00,CLR,,0.00,WeatherDisplay:10.37,2013-01-23 01:58:00,
2013-01-22 21:03:00,14.1,0.9,30.17,WNW,299,8.1,8.1,55,0.00,FEW,,0.00,WeatherDisplay:10.37,2013-01-23 02:03:00,
2013-01-22 21:08:00,14.0,1.2,30.17,NNW,329,13.0,13.0,56,0.00,FEW,,0.00,WeatherDisplay:10.37,2013-01-23 02:08:00,
2013-01-22 21:13:00,13.8,0.6,30.17,WNW,296,11.5,11.5,55,0.00,FEW,,0.00,WeatherDisplay:10.37,2013-01-23 02:13:00,
2013-01-22 21:18:00,13.6,-0.4,30.17,North,355,11.5,11.5,53,0.00,FEW,,0.00,WeatherDisplay:10.37,2013-01-23 02:18:00,
2013-01-22 21:23:00,13.5,-0.5,30.17,WNW,284,6.9,6.9,53,0.00,FEW,,0.00,WeatherDisplay:10.37,2013-01-23 02:23:00,
2013-01-22 21:28:00,13.4,-0.2,30.17,WNW,300,5.8,5.8,54,0.00,FEW,,0.00,WeatherDisplay:10.37,2013-01-23 02:28:00,
2013-01-22 21:33:00,13.3,-0.7,30.18,West,277,4.6,4.6,53,0.00,FEW,,0.00,WeatherDisplay:10.37,2013-01-23 02:33:00,
2013-01-22 21:38:00,13.2,-0.4,30.18,NW,319,8.1,8.1,54,0.00,FEW,,0.00,WeatherDisplay:10.37,2013-01-23 02:38:00,
2013-01-22 21:43:00,13.1,-0.5,30.18,West,265,6.9,6.9,54,0.00,FEW,,0.00,WeatherDisplay:10.37,2013-01-23 02:43:00,
2013-01-22 21:48:00,13.1,-0.9,30.18,WNW,294,8.1,8.1,53,0.00,FEW,,0.00,WeatherDisplay:10.37,2013-01-23 02:48:00,
2013-01-22 21:53:00,13.0,-0.6,30.18,NW,304,3.5,3.5,54,0.00,FEW,,0.00,WeatherDisplay:10.37,2013-01-23 02:53:00,
2013-01-22 21:58:00,12.9,-1.0,30.19,West,261,1.1,1.1,53,0.00,FEW,,0.00,WeatherDisplay:10.37,2013-01-23 02:58:00,
2013-01-22 22:03:00,12.8,-1.5,30.19,NW,309,4.6,5.4,52,0.00,CLR,,0.00,WeatherDisplay:10.37,2013-01-23 03:03:00,
2013-01-22 22:08:00,12.7,-3.3,30.19,WNW,300,13.0,13.0,48,0.00,CLR,,0.00,WeatherDisplay:10.37,2013-01-23 03:08:00,
2013-01-22 22:13:00,12.7,-3.3,30.19,West,278,10.0,10.0,48,0.00,CLR,,0.00,WeatherDisplay:10.37,2013-01-23 03:13:00,
2013-01-22 22:18:00,12.6,-3.9,30.19,NNW,330,13.8,13.8,47,0.00,CLR,,0.00,WeatherDisplay:10.37,2013-01-23 03:18:00,
2013-01-22 22:23:00,12.5,-3.9,30.19,NW,311,9.2,9.2,47,0.00,CLR,,0.00,WeatherDisplay:10.37,2013-01-23 03:23:00,
2013-01-22 22:28:00,12.4,-3.6,30.19,NW,309,14.0,14.0,48,0.00,CLR,,0.00,WeatherDisplay:10.37,2013-01-23 03:28:00,
2013-01-22 22:33:00,12.3,-3.7,30.19,NNW,347,9.2,9.2,48,0.00,CLR,,0.00,WeatherDisplay:10.37,2013-01-23 03:33:00,
2013-01-22 22:38:00,12.2,-3.8,30.19,NW,314,5.0,5.5,48,0.00,CLR,,0.00,WeatherDisplay:10.37,2013-01-23 03:38:00,
2013-01-22 22:43:00,12.1,-3.9,30.19,NW,325,11.5,11.5,48,0.00,CLR,,0.00,WeatherDisplay:10.37,2013-01-23 03:43:00,
2013-01-22 22:48:00,12.1,-3.9,30.19,NNW,336,11.0,11.0,48,0.00,CLR,,0.00,WeatherDisplay:10.37,2013-01-23 03:48:00,
2013-01-22 22:53:00,12.1,-3.9,30.19,WNW,296,4.6,4.6,48,0.00,CLR,,0.00,WeatherDisplay:10.37,2013-01-23 03:53:00,
2013-01-22 22:58:00,12.0,-4.0,30.20,WNW,301,3.5,3.5,48,0.00,CLR,,0.00,WeatherDisplay:10.37,2013-01-23 03:58:00,
2013-01-22 23:03:00,11.9,-3.6,30.20,NW,319,8.0,8.0,49,0.00,CLR,,0.00,WeatherDisplay:10.37,2013-01-23 04:03:00,
2013-01-22 23:08:00,11.9,-3.6,30.20,WNW,300,8.1,8.1,49,0.00,CLR,,0.00,WeatherDisplay:10.37,2013-01-23 04:08:00,
2013-01-22 23:13:00,11.9,-3.6,30.20,West,279,6.0,6.0,49,0.00,CLR,,0.00,WeatherDisplay:10.37,2013-01-23 04:13:00,
2013-01-22 23:18:00,11.8,-3.7,30.20,NW,322,8.1,8.1,49,0.00,CLR,,0.00,WeatherDisplay:10.37,2013-01-23 04:18:00,
2013-01-22 23:23:00,11.8,-3.3,30.19,West,281,11.5,11.5,50,0.00,CLR,,0.00,WeatherDisplay:10.37,2013-01-23 04:23:00,
2013-01-22 23:28:00,11.7,-3.4,30.20,West,281,6.9,6.9,50,0.00,CLR,,0.00,WeatherDisplay:10.37,2013-01-23 04:28:00,
2013-01-22 23:33:00,11.6,-3.5,30.19,North,349,9.0,9.0,50,0.00,CLR,,0.00,WeatherDisplay:10.37,2013-01-23 04:33:00,
2013-01-22 23:38:00,11.6,-3.5,30.19,West,275,11.5,11.5,50,0.00,CLR,,0.00,WeatherDisplay:10.37,2013-01-23 04:38:00,
2013-01-22 23:43:00,11.6,-3.1,30.19,NNE,18,6.9,6.9,51,0.00,CLR,,0.00,WeatherDisplay:10.37,2013-01-23 04:43:00,
2013-01-22 23:48:00,11.6,-3.1,30.19,NNW,342,4.6,4.6,51,0.00,CLR,,0.00,WeatherDisplay:10.37,2013-01-23 04:48:00,
2013-01-22 23:53:00,11.5,-3.2,30.18,WNW,300,12.7,12.7,51,0.00,CLR,,0.00,WeatherDisplay:10.37,2013-01-23 04:53:00,
2013-01-22 23:58:00,11.5,-2.8,30.19,WNW,293,8.1,8.1,52,0.00,CLR,,0.00,WeatherDisplay:10.37,2013-01-23 04:58:00,